Regional Weather Roundup
Issued by NWS

Home | Current Version | Previous Version | Text Only | Print | Product List | Glossary On
Versions: 1 2 3 4 5 6 7 8 9 10 11 12 13 14 15 16 17 18 19 20 21 22 23 24 25 26 27 28 29 30 31 32 33 34 35 36 37 38 39 40 41 42 43 44 45 46 47 48 49 50
000
ASUS43 KLSX 210507
RWRMO

WEATHER SUMMARY FOR MISSOURI
NATIONAL WEATHER SERVICE SPRINGFIELD MO
1200 AM CDT MON APR 21 2014

NOTE: "FAIR" INDICATES FEW OR NO CLOUDS BELOW 12,000 FEET WITH NO
       SIGNIFICANT WEATHER AND/OR OBSTRUCTIONS TO VISIBILITY.
       CURRENT SKY AND/OR WEATHER CONDITIONS ARE NOT AVAILABLE FOR
       CHILLICOTHE AND FARMINGTON.

MOZ001>031-035>038-043-044-053-054-210600-
...NORTHERN AND WESTERN MISSOURI...

CITY           SKY/WX    TMP DP  RH WIND       PRES   REMARKS
KANSAS CTY INT CLOUDY    63  55  75 S8        30.01F
KANSAS C DTWN  CLOUDY    67  55  65 S5        30.00F
LEE`S SUMMIT   CLOUDY    66  53  63 S6        30.02F
ST JOSEPH      CLOUDY    64  55  72 S5        29.99F
CHILLICOTHE      N/A     68  53  58 CALM      30.01F
KIRKSVILLE     CLOUDY    69  51  52 W8        30.01F

$$
MOZ066>068-077>081-088>096-101>105-210600-
...SOUTHWEST MISSOURI...

CITY           SKY/WX    TMP DP  RH WIND       PRES   REMARKS
SPRINGFIELD    MOCLDY    60  50  69 SE5       30.04F
JOPLIN         CLOUDY    62  52  69 SE5       30.03F

$$
MOZ032>034-039>042-045>050-055>058-069>072-210600-
...CENTRAL MISSOURI...

CITY           SKY/WX    TMP DP  RH WIND       PRES   REMARKS
COLUMBIA       CLOUDY    67  50  54 W5        30.03S
JEFFERSON CITY CLOUDY    64  53  67 CALM      30.02F
ROLLA          CLOUDY    66  47  50 S9        30.03F
SEDALIA        CLOUDY    66  54  65 SW3       30.03F
WHITEMAN AFB   CLOUDY    64  51  63 S5        30.01F
OSAGE BEACH    CLOUDY    64  48  55 CALM      30.04F

$$
MOZ051-052-059>065-210600-
...EAST CENTRAL MISSOURI...

CITY           SKY/WX    TMP DP  RH WIND       PRES   REMARKS
ST LOUIS INTL  CLOUDY    72  43  35 S8        30.04S
SPIRIT OF STL  CLOUDY    71  40  32 S7        30.02F
ST CHARLES     CLOUDY    68  45  43 S3        30.02S

$$
MOZ072>076-082>087-097>100-106>115-210600-
...SOUTH CENTRAL AND SOUTHEAST MISSOURI...

CITY           SKY/WX    TMP DP  RH WIND       PRES   REMARKS
CAPE GIRARDEAU PTCLDY    60  49  66 CALM      30.08S
FARMINGTON     MOCLDY    63  45  51 S5        30.09F
POPLAR BLUFF   MOCLDY    60  53  77 CALM      30.06F
WEST PLAINS    PTCLDY    64  46  52 S6        30.08F

$$



USA.gov is the U.S. government's official web portal to all federal, state and local government web resources and services.